Location: Sternwarte ZA, Rosenfeld-Brittheim
(48.2889°N, 8.6789°E)
Time: 17:41:34
(UTC+02:00)

ISS - Pass Details

Date: 18 May 2018
Orbit: 402 x 407 km, 51.6° (Epoch: 27 May)

Event Time Altitude Azimuth Distance (km) Brightness Sun altitude
Exits shadow 01:48:10 53° 23° (NNE) 503 -3.1 -22.0°
Drops below altitude 10° 01:50:59 10° 67° (ENE) 1,460 -0.6 -21.9°
Sets 01:53:05 0° 71° (ENE) 2,320 0.4 -21.9°
